Regional Weather Roundup
Issued by NWS Memphis, TN

Home | Current Version | Previous Version | Text Only | Print | Product List | Glossary On
Versions: 1 2 3 4 5 6 7 8 9 10 11 12 13 14 15 16 17 18 19 20 21 22 23 24 25 26 27 28 29 30 31 32 33 34 35 36 37 38 39 40 41 42 43 44 45 46 47 48 49 50
000
ASUS44 KMEG 140710
RWRMEG
MEMPHIS CWA HOURLY WEATHER ROUNDUP
NATIONAL WEATHER SERVICE MEMPHIS TN
100 AM CST THU NOV 14 2019

...WEST TENNESSEE...

CITY           SKY/WX    TMP DP  RH WIND       PRES   REMARKS
MEMPHIS INTL   CLOUDY    32  24  72 SW3       30.24R
NWS MEMPHIS      N/A     30 N/A N/A MISG        N/A
JACKSON        FAIR      25  21  85 CALM      30.24R
SOMERVILLE     CLEAR     30  23  74 CALM      30.22R
BOLIVAR        CLEAR     30  23  74 CALM      30.23R
LEXINGTON      CLEAR     27  23  86 CALM      30.23R
DYERSBURG      FAIR      27  21  78 W3        30.24S
UNION CITY     CLEAR     30  19  64 CALM      30.22S
PARIS          CLEAR     28  21  74 SW6       30.21S WCI  22


...EASTERN ARKANSAS...

CITY           SKY/WX    TMP DP  RH WIND       PRES   REMARKS
JONESBORO      FAIR      30  25  81 CALM      30.21S
WEST MEMPHIS   FAIR      29  26  89 S6        30.23R WCI  23
BATESVILLE     MOCLDY    34  21  59 CALM      30.20S
NEWPORT        FAIR      29  24  82 S6        30.22R WCI  23
WALNUT RIDGE   CLOUDY   N/A N/A N/A S5        30.21S
BLYTHEVILLE    FAIR      28  23  81 S6        30.23S WCI  22
SEARCY         FAIR      25  24  96 CALM      30.23S
STUTTGART      FAIR      32  27  81 CALM      30.25R
PINE BLUFF     FAIR      33  25  72 CALM      30.24R
MONTICELLO     FAIR      37  25  61 S3        30.24S


...NORTH MISSISSIPPI...

CITY           SKY/WX    TMP DP  RH WIND       PRES   REMARKS
TUPELO         FAIR      34  27  75 CALM      30.27R
OXFORD         FAIR      36  23  60 VRB5G14   30.25R WCI  32
BATESVILLE     FAIR      32  28  86 CALM      30.25R
OLIVE BRANCH   CLEAR     30  21  69 S3        30.23R
TUNICA           N/A     32  28  86 CALM      30.27R
CLARKSDALE       N/A     36  28  75 CALM      30.26R
CORINTH        FAIR      32  25  74 CALM      30.24S
GREENWOOD      CLOUDY    36  30  79 CALM      30.25F
COLUMBUS       CLOUDY    33  30  87 CALM      30.26R
STARKVILLE     FAIR      32  32 100 CALM      30.27S
GOLDEN TRIANGL FAIR      34  31  88 CALM      30.26S


...SOUTHEAST MISSOURI...

CITY           SKY/WX    TMP DP  RH WIND       PRES   REMARKS
KENNETT        FAIR      28  25  86 CALM      30.21S
MALDEN         FAIR      30  25  80 MISG      30.22R
WEST PLAINS    CLEAR     27  17  66 CALM      30.14R
POPLAR BLUFF   MOCLDY    26  22  84 CALM      30.20R
CAPE GIRARDEAU FAIR      27  23  85 S5        30.19S WCI  22


...NORTHWEST ALABAMA...

CITY           SKY/WX    TMP DP  RH WIND       PRES   REMARKS
MUSCLE SHOALS  FAIR      32  29  88 CALM      30.26R


...MIDDLE TENNESSEE...

CITY           SKY/WX    TMP DP  RH WIND       PRES   REMARKS
NASHVILLE      MOCLDY    32  22  66 S3        30.24R
CLARKSVILLE    FAIR      27  22  81 CALM      30.22R
DICKSON        SUNNY     32  23  69 S10       30.19F WCI  24
COLUMBIA       CLEAR     32  27  80 CALM      30.21S
LAWRENCEBURG   SUNNY     28  25  86 SE3       30.22S
LEWISBURG      SUNNY     34  25  69 S7        30.23S WCI  28


...WESTERN KENTUCKY...

CITY           SKY/WX    TMP DP  RH WIND       PRES   REMARKS
PADUCAH        FAIR      30  17  58 SW5       30.20R WCI  25
FORT CAMPBELL  FAIR      29  20  67 S3        30.21R


...CENTRAL ARKANSAS...

CITY           SKY/WX    TMP DP  RH WIND       PRES   REMARKS
LITTLE ROCK    MOCLDY    29  24  82 CALM      30.24S


SKY/WX REPORTED AS FAIR MEANS FEW OR NO CLOUDS BELOW
12 THOUSAND FEET.




USA.gov is the U.S. government's official web portal to all federal, state and local government web resources and services.